Time,TemperatureF,DewpointF,PressureIn,WindDirection,WindDirectionDegrees,WindSpeedMPH,WindSpeedGustMPH,Humidity,HourlyPrecipIn,Conditions,Clouds,dailyrainin,SolarRadiationWatts/m^2,SoftwareType,DateUTC
2013-02-26 00:00:00,30.0,25.8,30.06,SE,128,0.2,1.1,84,0.00,SCT,BKN,0.00,0.0,WeatherDisplay:10.37,2013-02-26 05:00:00,
2013-02-26 00:05:00,30.2,25.9,30.06,East,99,0.0,0.0,84,0.00,SCT,BKN,0.00,0.0,WeatherDisplay:10.37,2013-02-26 05:05:00,
2013-02-26 00:10:00,30.2,25.7,30.05,SE,128,0.0,0.0,83,0.00,SCT,BKN,0.00,0.0,WeatherDisplay:10.37,2013-02-26 05:10:00,
2013-02-26 00:15:00,30.2,25.7,30.06,SE,127,0.0,0.0,83,0.00,SCT,BKN,0.00,0.0,WeatherDisplay:10.37,2013-02-26 05:15:00,
2013-02-26 00:20:00,30.2,26.2,30.06,ESE,119,1.5,2.3,85,0.00,SCT,BKN,0.00,0.0,WeatherDisplay:10.37,2013-02-26 05:20:00,
2013-02-26 00:25:00,30.4,26.4,30.06,ESE,117,0.0,0.0,85,0.00,SCT,BKN,0.00,0.0,WeatherDisplay:10.37,2013-02-26 05:25:00,
2013-02-26 00:30:00,30.4,26.1,30.06,ESE,117,0.0,0.0,84,0.00,SCT,BKN,0.00,0.0,WeatherDisplay:10.37,2013-02-26 05:30:00,
2013-02-26 00:35:00,30.4,26.1,30.06,East,98,0.0,0.0,84,0.00,SCT,BKN,0.00,0.0,WeatherDisplay:10.37,2013-02-26 05:35:00,
2013-02-26 00:40:00,30.2,25.9,30.06,SE,138,0.0,0.0,84,0.00,SCT,BKN,0.00,0.0,WeatherDisplay:10.37,2013-02-26 05:40:00,
2013-02-26 00:45:00,30.0,25.8,30.07,SE,138,0.0,0.0,84,0.00,SCT,BKN,0.00,0.0,WeatherDisplay:10.37,2013-02-26 05:45:00,
2013-02-26 00:50:00,30.0,25.8,30.07,SSE,151,0.0,0.0,84,0.00,SCT,BKN,0.00,0.0,WeatherDisplay:10.37,2013-02-26 05:50:00,
2013-02-26 00:55:00,30.0,26.1,30.07,SE,131,0.0,0.0,85,0.00,SCT,BKN,0.00,0.0,WeatherDisplay:10.37,2013-02-26 05:55:00,
2013-02-26 01:00:00,30.0,26.1,30.07,SE,125,0.0,0.0,85,0.00,SCT,BKN,0.00,0.0,WeatherDisplay:10.37,2013-02-26 06:00:00,
2013-02-26 01:05:00,30.0,26.1,30.07,ESE,107,0.0,0.0,85,0.00,SCT,BKN,0.00,0.0,WeatherDisplay:10.37,2013-02-26 06:05:00,
2013-02-26 01:10:00,29.7,25.7,30.08,ESE,112,0.0,0.0,85,0.00,SCT,BKN,0.00,0.0,WeatherDisplay:10.37,2013-02-26 06:10:00,
2013-02-26 01:15:00,29.7,26.0,30.08,SE,136,0.0,1.1,86,0.00,SCT,BKN,0.00,0.0,WeatherDisplay:10.37,2013-02-26 06:15:00,
2013-02-26 01:20:00,30.0,26.3,30.08,SE,136,0.0,0.0,86,0.00,CLR,BKN,0.00,0.0,WeatherDisplay:10.37,2013-02-26 06:20:00,
2013-02-26 01:25:00,29.8,26.2,30.08,SE,135,0.0,0.0,86,0.00,CLR,BKN,0.00,0.0,WeatherDisplay:10.37,2013-02-26 06:25:00,
2013-02-26 01:30:00,29.7,26.0,30.08,SE,125,0.0,0.0,86,0.00,CLR,BKN,0.00,0.0,WeatherDisplay:10.37,2013-02-26 06:30:00,
2013-02-26 01:35:00,29.7,26.0,30.08,SE,125,0.0,0.0,86,0.00,CLR,BKN,0.00,0.0,WeatherDisplay:10.37,2013-02-26 06:35:00,
2013-02-26 01:40:00,29.7,26.0,30.08,SE,125,0.0,0.0,86,0.00,CLR,BKN,0.00,0.0,WeatherDisplay:10.37,2013-02-26 06:40:00,
2013-02-26 01:45:00,29.5,26.1,30.08,SE,145,0.1,1.3,87,0.00,CLR,BKN,0.00,0.0,WeatherDisplay:10.37,2013-02-26 06:45:00,
2013-02-26 01:50:00,29.7,26.5,30.08,SE,130,0.0,0.0,88,0.00,CLR,BKN,0.00,0.0,WeatherDisplay:10.37,2013-02-26 06:50:00,
2013-02-26 01:55:00,29.7,26.3,30.08,SE,130,0.0,0.0,87,0.00,CLR,BKN,0.00,0.0,WeatherDisplay:10.37,2013-02-26 06:55:00,
2013-02-26 02:00:00,29.7,26.5,30.08,SE,130,0.0,0.0,88,0.00,CLR,BKN,0.00,0.0,WeatherDisplay:10.37,2013-02-26 07:00:00,
2013-02-26 02:05:00,29.7,26.3,30.08,SE,130,0.0,0.0,87,0.00,CLR,BKN,0.00,0.0,WeatherDisplay:10.37,2013-02-26 07:05:00,
2013-02-26 02:10:00,29.5,26.1,30.08,ESE,114,0.0,0.0,87,0.00,CLR,BKN,0.00,0.0,WeatherDisplay:10.37,2013-02-26 07:10:00,
2013-02-26 02:15:00,29.3,25.9,30.07,ESE,114,0.0,0.0,87,0.00,CLR,BKN,0.00,0.0,WeatherDisplay:10.37,2013-02-26 07:15:00,
2013-02-26 02:20:00,29.3,25.9,30.07,ESE,114,0.0,0.0,87,0.00,CLR,BKN,0.00,0.0,WeatherDisplay:10.37,2013-02-26 07:20:00,
2013-02-26 02:25:00,29.1,25.7,30.07,ESE,114,0.0,0.0,87,0.00,CLR,BKN,0.00,0.0,WeatherDisplay:10.37,2013-02-26 07:25:00,
2013-02-26 02:30:00,29.1,25.7,30.07,ESE,113,0.0,0.0,87,0.00,CLR,BKN,0.00,0.0,WeatherDisplay:10.37,2013-02-26 07:30:00,
2013-02-26 02:35:00,28.9,25.6,30.07,East,94,0.0,0.0,87,0.00,CLR,BKN,0.00,0.0,WeatherDisplay:10.37,2013-02-26 07:35:00,
2013-02-26 02:40:00,28.8,25.7,30.06,East,94,0.0,0.0,88,0.00,CLR,BKN,0.00,0.0,WeatherDisplay:10.37,2013-02-26 07:40:00,
2013-02-26 02:45:00,28.8,25.7,30.07,ENE,64,0.0,0.0,88,0.00,CLR,BKN,0.00,0.0,WeatherDisplay:10.37,2013-02-26 07:45:00,
2013-02-26 02:50:00,28.8,25.7,30.06,ENE,64,0.0,0.0,88,0.00,CLR,BKN,0.00,0.0,WeatherDisplay:10.37,2013-02-26 07:50:00,
2013-02-26 02:55:00,28.4,25.3,30.06,NNE,21,0.0,0.0,88,0.00,CLR,BKN,0.00,0.0,WeatherDisplay:10.37,2013-02-26 07:55:00,
2013-02-26 03:00:00,28.2,25.1,30.06,NNE,33,0.0,0.0,88,0.00,CLR,BKN,0.00,0.0,WeatherDisplay:10.37,2013-02-26 08:00:00,
2013-02-26 03:05:00,28.0,24.9,30.06,NNE,33,0.0,0.0,88,0.00,CLR,BKN,0.00,0.0,WeatherDisplay:10.37,2013-02-26 08:05:00,
2013-02-26 03:10:00,28.0,24.9,30.05,NNE,33,0.0,0.0,88,0.00,CLR,BKN,0.00,0.0,WeatherDisplay:10.37,2013-02-26 08:10:00,
2013-02-26 03:15:00,27.9,24.8,30.05,East,96,0.0,0.0,88,0.00,CLR,BKN,0.00,0.0,WeatherDisplay:10.37,2013-02-26 08:15:00,
2013-02-26 03:20:00,27.9,24.8,30.05,NNE,32,0.0,0.0,88,0.00,CLR,BKN,0.00,0.0,WeatherDisplay:10.37,2013-02-26 08:20:00,
2013-02-26 03:25:00,27.9,25.0,30.05,NE,48,0.0,0.0,89,0.00,CLR,BKN,0.00,0.0,WeatherDisplay:10.37,2013-02-26 08:25:00,
2013-02-26 03:30:00,27.9,25.0,30.06,NNE,25,0.0,0.0,89,0.00,CLR,BKN,0.00,0.0,WeatherDisplay:10.37,2013-02-26 08:30:00,
2013-02-26 03:35:00,27.9,25.0,30.06,NE,51,0.0,0.0,89,0.00,CLR,BKN,0.00,0.0,WeatherDisplay:10.37,2013-02-26 08:35:00,
2013-02-26 03:40:00,27.7,24.9,30.06,NNE,33,0.0,0.0,89,0.00,CLR,BKN,0.00,0.0,WeatherDisplay:10.37,2013-02-26 08:40:00,
2013-02-26 03:45:00,27.7,24.9,30.06,NE,48,0.0,0.0,89,0.00,CLR,BKN,0.00,0.0,WeatherDisplay:10.37,2013-02-26 08:45:00,
2013-02-26 03:50:00,27.7,24.9,30.06,NE,53,0.0,0.0,89,0.00,CLR,BKN,0.00,0.0,WeatherDisplay:10.37,2013-02-26 08:50:00,
2013-02-26 03:55:00,27.5,24.7,30.05,NE,49,0.0,0.0,89,0.00,CLR,BKN,0.00,0.0,WeatherDisplay:10.37,2013-02-26 08:55:00,
2013-02-26 04:00:00,27.5,24.7,30.04,ENE,63,0.0,0.0,89,0.00,CLR,BKN,0.00,0.0,WeatherDisplay:10.37,2013-02-26 09:00:00,
2013-02-26 04:05:00,27.3,24.2,30.04,NE,54,0.0,0.0,88,0.00,CLR,BKN,0.00,0.0,WeatherDisplay:10.37,2013-02-26 09:05:00,
2013-02-26 04:10:00,27.3,24.2,30.04,NE,39,0.0,0.0,88,0.00,CLR,BKN,0.00,0.0,WeatherDisplay:10.37,2013-02-26 09:10:00,
2013-02-26 04:15:00,27.0,23.9,30.04,NE,52,0.0,0.0,88,0.00,CLR,BKN,0.00,0.0,WeatherDisplay:10.37,2013-02-26 09:15:00,
2013-02-26 04:20:00,27.0,23.9,30.04,NNE,15,0.0,0.0,88,0.00,CLR,BKN,0.00,0.0,WeatherDisplay:10.37,2013-02-26 09:20:00,
2013-02-26 04:25:00,27.0,23.9,30.04,ENE,57,0.0,0.0,88,0.00,CLR,BKN,0.00,0.0,WeatherDisplay:10.37,2013-02-26 09:25:00,
2013-02-26 04:30:00,27.0,23.9,30.04,NE,39,0.0,0.0,88,0.00,CLR,BKN,0.00,0.0,WeatherDisplay:10.37,2013-02-26 09:30:00,
2013-02-26 04:35:00,27.0,23.9,30.04,NE,51,0.0,0.0,88,0.00,CLR,BKN,0.00,0.0,WeatherDisplay:10.37,2013-02-26 09:35:00,
2013-02-26 04:40:00,26.8,23.4,30.04,NE,51,0.0,0.0,87,0.00,CLR,BKN,0.00,0.0,WeatherDisplay:10.37,2013-02-26 09:40:00,
2013-02-26 04:45:00,26.8,23.7,30.05,NNE,31,0.0,0.0,88,0.00,CLR,BKN,0.00,0.0,WeatherDisplay:10.37,2013-02-26 09:45:00,
2013-02-26 04:50:00,26.8,23.4,30.05,NE,39,0.0,0.0,87,0.00,CLR,BKN,0.00,0.0,WeatherDisplay:10.37,2013-02-26 09:50:00,
2013-02-26 04:55:00,26.8,23.4,30.06,NE,51,0.0,0.0,87,0.00,CLR,BKN,0.00,0.0,WeatherDisplay:10.37,2013-02-26 09:55:00,
2013-02-26 05:00:00,26.8,23.7,30.06,NE,51,0.0,1.4,88,0.00,CLR,BKN,0.00,0.0,WeatherDisplay:10.37,2013-02-26 10:00:00,
2013-02-26 05:05:00,27.0,23.6,30.05,NE,44,0.0,0.0,87,0.00,CLR,BKN,0.00,0.0,WeatherDisplay:10.37,2013-02-26 10:05:00,
2013-02-26 05:10:00,26.8,23.4,30.06,NE,52,0.0,0.0,87,0.00,CLR,BKN,0.00,0.0,WeatherDisplay:10.37,2013-02-26 10:10:00,
2013-02-26 05:15:00,26.6,23.0,30.05,NE,38,0.0,0.0,86,0.00,CLR,BKN,0.00,0.0,WeatherDisplay:10.37,2013-02-26 10:15:00,
2013-02-26 05:20:00,26.4,22.8,30.05,NE,44,0.0,0.0,86,0.00,CLR,BKN,0.00,0.0,WeatherDisplay:10.37,2013-02-26 10:20:00,
2013-02-26 05:25:00,26.4,22.8,30.04,NE,41,0.0,0.0,86,0.00,CLR,BKN,0.00,0.0,WeatherDisplay:10.37,2013-02-26 10:25:00,
2013-02-26 05:30:00,26.4,23.1,30.05,ENE,67,0.1,1.1,87,0.00,CLR,BKN,0.00,0.0,WeatherDisplay:10.37,2013-02-26 10:30:00,
2013-02-26 05:35:00,26.4,23.1,30.05,NE,55,0.0,1.1,87,0.00,CLR,BKN,0.00,0.0,WeatherDisplay:10.37,2013-02-26 10:35:00,
2013-02-26 05:40:00,26.4,23.1,30.05,NE,42,0.0,0.0,87,0.00,CLR,BKN,0.00,0.0,WeatherDisplay:10.37,2013-02-26 10:40:00,
2013-02-26 05:45:00,26.2,22.6,30.04,ENE,68,0.0,0.0,86,0.00,CLR,BKN,0.00,0.0,WeatherDisplay:10.37,2013-02-26 10:45:00,
2013-02-26 05:50:00,26.2,22.9,30.04,NE,38,0.0,0.0,87,0.00,CLR,BKN,0.00,0.0,WeatherDisplay:10.37,2013-02-26 10:50:00,
2013-02-26 05:55:00,26.2,22.9,30.04,NE,54,0.3,1.1,87,0.00,CLR,BKN,0.00,0.0,WeatherDisplay:10.37,2013-02-26 10:55:00,
2013-02-26 06:00:00,26.2,22.9,30.04,NE,52,0.0,1.1,87,0.00,CLR,BKN,0.00,0.0,WeatherDisplay:10.37,2013-02-26 11:00:00,
2013-02-26 06:05:00,26.4,23.1,30.04,NE,39,0.4,2.3,87,0.00,CLR,BKN,0.00,0.0,WeatherDisplay:10.37,2013-02-26 11:05:00,
2013-02-26 06:10:00,26.4,23.1,30.04,NE,38,0.1,1.1,87,0.00,CLR,BKN,0.00,0.0,WeatherDisplay:10.37,2013-02-26 11:10:00,
2013-02-26 06:15:00,26.6,23.3,30.04,ESE,107,0.1,1.1,87,0.00,CLR,BKN,0.00,0.0,WeatherDisplay:10.37,2013-02-26 11:15:00,
2013-02-26 06:20:00,26.8,23.4,30.04,NE,47,0.0,0.0,87,0.00,FEW,BKN,0.00,0.0,WeatherDisplay:10.37,2013-02-26 11:20:00,
2013-02-26 06:25:00,26.8,23.4,30.03,NE,49,0.1,1.1,87,0.00,FEW,BKN,0.00,0.0,WeatherDisplay:10.37,2013-02-26 11:25:00,
2013-02-26 06:30:00,26.8,23.4,30.03,NNE,17,0.0,0.7,87,0.00,FEW,BKN,0.00,0.0,WeatherDisplay:10.37,2013-02-26 11:30:00,
2013-02-26 06:35:00,26.8,23.4,30.03,ENE,60,0.4,3.5,87,0.00,FEW,BKN,0.00,0.0,WeatherDisplay:10.37,2013-02-26 11:35:00,
2013-02-26 06:40:00,26.8,23.4,30.03,NNE,29,0.6,2.3,87,0.00,FEW,BKN,0.00,0.0,WeatherDisplay:10.37,2013-02-26 11:40:00,
2013-02-26 06:45:00,27.0,23.6,30.02,NNE,33,1.1,3.5,87,0.00,FEW,BKN,0.00,0.0,WeatherDisplay:10.37,2013-02-26 11:45:00,
2013-02-26 06:50:00,26.8,23.4,30.02,NNE,26,0.0,1.1,87,0.00,FEW,BKN,0.00,0.0,WeatherDisplay:10.37,2013-02-26 11:50:00,
2013-02-26 06:55:00,27.0,23.6,30.02,ENE,60,1.6,3.0,87,0.00,FEW,BKN,0.00,0.0,WeatherDisplay:10.37,2013-02-26 11:55:00,
2013-02-26 07:00:00,27.1,24.1,30.02,East,84,1.0,4.6,88,0.00,FEW,BKN,0.00,0.0,WeatherDisplay:10.37,2013-02-26 12:00:00,
2013-02-26 07:05:00,27.3,24.2,30.02,NE,54,1.6,2.3,88,0.00,FEW,BKN,0.00,0.0,WeatherDisplay:10.37,2013-02-26 12:05:00,
2013-02-26 07:10:00,27.3,24.2,30.02,ENE,62,0.9,3.5,88,0.00,FEW,BKN,0.00,0.0,WeatherDisplay:10.37,2013-02-26 12:10:00,
2013-02-26 07:15:00,27.5,24.1,30.02,ENE,64,1.7,3.5,87,0.00,FEW,BKN,0.00,0.0,WeatherDisplay:10.37,2013-02-26 12:15:00,
2013-02-26 07:20:00,27.7,24.3,30.02,NNE,20,0.0,0.0,87,0.00,SCT,BKN,0.00,0.0,WeatherDisplay:10.37,2013-02-26 12:20:00,
2013-02-26 07:25:00,27.7,24.3,30.02,NNE,31,0.8,2.3,87,0.00,SCT,BKN,0.00,0.0,WeatherDisplay:10.37,2013-02-26 12:25:00,
2013-02-26 07:30:00,27.9,24.5,30.02,NNE,21,2.1,4.6,87,0.00,SCT,BKN,0.00,0.0,WeatherDisplay:10.37,2013-02-26 12:30:00,
2013-02-26 07:35:00,28.0,24.7,30.02,North,7,1.6,3.5,87,0.00,SCT,BKN,0.00,0.0,WeatherDisplay:10.37,2013-02-26 12:35:00,
2013-02-26 07:40:00,28.4,25.3,30.02,ENE,67,2.4,5.8,88,0.00,SCT,BKN,0.00,0.0,WeatherDisplay:10.37,2013-02-26 12:40:00,
2013-02-26 07:45:00,28.6,25.5,30.02,NNE,21,0.3,2.3,88,0.00,SCT,BKN,0.00,0.0,WeatherDisplay:10.37,2013-02-26 12:45:00,
2013-02-26 07:50:00,28.9,25.8,30.02,West,271,0.0,0.0,88,0.00,SCT,BKN,0.00,0.0,WeatherDisplay:10.37,2013-02-26 12:50:00,
2013-02-26 07:55:00,29.1,25.7,30.02,East,99,0.1,0.0,87,0.00,SCT,BKN,0.00,0.0,WeatherDisplay:10.37,2013-02-26 12:55:00,
2013-02-26 08:00:00,29.3,25.9,30.02,NNE,24,0.2,2.3,87,0.00,SCT,BKN,0.00,71.8,WeatherDisplay:10.37,2013-02-26 13:00:00,
2013-02-26 08:05:00,29.5,25.8,30.02,NE,38,0.0,2.3,86,0.00,SCT,BKN,0.00,73.3,WeatherDisplay:10.37,2013-02-26 13:05:00,
2013-02-26 08:10:00,29.5,25.8,30.03,NNE,13,0.0,1.1,86,0.00,SCT,BKN,0.00,84.9,WeatherDisplay:10.37,2013-02-26 13:10:00,
2013-02-26 08:15:00,29.8,26.2,30.03,East,85,0.4,2.3,86,0.00,SCT,BKN,0.00,88.8,WeatherDisplay:10.37,2013-02-26 13:15:00,
2013-02-26 08:20:00,30.0,26.3,30.03,NNE,23,0.7,2.3,86,0.00,BKN,,0.00,94.2,WeatherDisplay:10.37,2013-02-26 13:20:00,
2013-02-26 08:25:00,30.4,26.7,30.03,NNW,339,0.2,1.1,86,0.00,BKN,,0.00,101.9,WeatherDisplay:10.37,2013-02-26 13:25:00,
2013-02-26 08:30:00,30.4,26.4,30.03,ENE,63,1.5,4.6,85,0.00,BKN,,0.00,109.6,WeatherDisplay:10.37,2013-02-26 13:30:00,
2013-02-26 08:35:00,31.6,27.6,30.03,ESE,104,0.7,7.8,85,0.00,BKN,,0.00,122.7,WeatherDisplay:10.37,2013-02-26 13:35:00,
2013-02-26 08:40:00,32.2,28.2,30.02,North,8,1.1,3.5,85,0.00,BKN,,0.00,126.6,WeatherDisplay:10.37,2013-02-26 13:40:00,
2013-02-26 08:45:00,32.7,28.4,30.02,ENE,77,1.6,3.5,84,0.00,BKN,,0.00,213.1,WeatherDisplay:10.37,2013-02-26 13:45:00,
2013-02-26 08:50:00,33.1,28.5,30.02,ENE,64,1.2,4.6,83,0.00,BKN,,0.00,303.4,WeatherDisplay:10.37,2013-02-26 13:50:00,
2013-02-26 08:55:00,33.6,29.0,30.02,NE,38,1.0,3.5,83,0.00,BKN,,0.00,371.3,WeatherDisplay:10.37,2013-02-26 13:55:00,
2013-02-26 09:00:00,34.5,29.6,30.02,ESE,105,0.4,3.5,82,0.00,BKN,,0.00,372.9,WeatherDisplay:10.37,2013-02-26 14:00:00,
2013-02-26 09:05:00,35.6,30.3,30.02,NNE,25,0.7,2.3,81,0.00,BKN,,0.00,363.6,WeatherDisplay:10.37,2013-02-26 14:05:00,
2013-02-26 09:10:00,36.3,31.0,30.02,North,9,0.2,1.4,81,0.00,BKN,,0.00,382.9,WeatherDisplay:10.37,2013-02-26 14:10:00,
2013-02-26 09:15:00,37.0,31.1,30.02,ESE,105,0.6,3.5,79,0.00,BKN,,0.00,389.9,WeatherDisplay:10.37,2013-02-26 14:15:00,
2013-02-26 09:20:00,37.6,30.0,30.03,WSW,255,0.8,2.3,74,0.00,BKN,,0.00,410.7,WeatherDisplay:10.37,2013-02-26 14:20:00,
2013-02-26 09:25:00,37.6,29.0,30.02,South,171,1.8,4.6,71,0.00,BKN,,0.00,346.6,WeatherDisplay:10.37,2013-02-26 14:25:00,
2013-02-26 09:30:00,37.9,29.0,30.02,NE,55,3.0,5.8,70,0.00,BKN,,0.00,384.5,WeatherDisplay:10.37,2013-02-26 14:30:00,
2013-02-26 09:35:00,37.6,28.0,30.02,SE,146,4.8,8.1,68,0.00,BKN,,0.00,414.6,WeatherDisplay:10.37,2013-02-26 14:35:00,
2013-02-26 09:40:00,37.9,27.6,30.02,NNW,332,6.8,11.5,66,0.00,BKN,,0.00,423.8,WeatherDisplay:10.37,2013-02-26 14:40:00,
2013-02-26 09:45:00,38.5,28.1,30.02,NNE,33,3.2,6.9,66,0.00,BKN,,0.00,418.4,WeatherDisplay:10.37,2013-02-26 14:45:00,
2013-02-26 09:50:00,38.7,27.9,30.02,SSE,158,3.0,6.9,65,0.00,BKN,,0.00,388.3,WeatherDisplay:10.37,2013-02-26 14:50:00,
2013-02-26 09:55:00,38.5,27.4,30.02,SSE,161,3.4,10.4,64,0.00,BKN,,0.00,380.6,WeatherDisplay:10.37,2013-02-26 14:55:00,
2013-02-26 10:00:00,37.6,26.5,30.01,South,184,7.2,9.2,64,0.00,BKN,,0.00,396.0,WeatherDisplay:10.37,2013-02-26 15:00:00,
2013-02-26 10:05:00,38.7,28.6,30.00,North,10,0.3,2.3,67,0.00,BKN,,0.00,410.7,WeatherDisplay:10.37,2013-02-26 15:05:00,
2013-02-26 10:10:00,40.5,29.2,30.00,NE,39,2.2,5.8,64,0.00,BKN,,0.00,403.0,WeatherDisplay:10.37,2013-02-26 15:10:00,
2013-02-26 10:15:00,41.5,29.1,30.00,North,5,2.1,5.8,61,0.00,BKN,,0.00,396.0,WeatherDisplay:10.37,2013-02-26 15:15:00,
2013-02-26 10:20:00,41.9,28.6,30.00,SE,136,1.3,4.6,59,0.00,BKN,,0.00,431.5,WeatherDisplay:10.37,2013-02-26 15:20:00,
2013-02-26 10:25:00,42.4,28.7,29.99,ENE,64,1.9,5.8,58,0.00,BKN,,0.00,433.1,WeatherDisplay:10.37,2013-02-26 15:25:00,
2013-02-26 10:30:00,42.6,28.9,29.99,NE,38,1.2,4.9,58,0.00,BKN,,0.00,452.4,WeatherDisplay:10.37,2013-02-26 15:30:00,
2013-02-26 10:35:00,43.5,28.8,29.98,NNE,18,1.7,5.8,56,0.00,BKN,,0.00,482.5,WeatherDisplay:10.37,2013-02-26 15:35:00,
2013-02-26 10:40:00,44.1,28.9,29.98,ENE,61,0.6,2.3,55,0.00,BKN,,0.00,486.4,WeatherDisplay:10.37,2013-02-26 15:40:00,
2013-02-26 10:45:00,44.1,28.0,29.98,South,172,4.8,11.5,53,0.00,BKN,,0.00,457.8,WeatherDisplay:10.37,2013-02-26 15:45:00,
2013-02-26 10:50:00,44.1,28.5,29.98,SE,146,1.7,4.0,54,0.00,BKN,,0.00,529.6,WeatherDisplay:10.37,2013-02-26 15:50:00,
2013-02-26 10:55:00,44.6,28.5,29.98,NE,36,2.3,4.6,53,0.00,BKN,,0.00,511.1,WeatherDisplay:10.37,2013-02-26 15:55:00,
2013-02-26 11:00:00,45.3,28.7,29.98,NE,56,3.3,5.8,52,0.00,BKN,,0.00,503.3,WeatherDisplay:10.37,2013-02-26 16:00:00,
2013-02-26 11:05:00,44.8,28.2,29.98,NE,55,4.0,9.2,52,0.00,BKN,,0.00,516.5,WeatherDisplay:10.37,2013-02-26 16:05:00,
2013-02-26 11:10:00,45.7,30.0,29.98,NE,39,2.1,4.6,54,0.00,BKN,,0.00,571.3,WeatherDisplay:10.37,2013-02-26 16:10:00,
2013-02-26 11:15:00,46.6,29.4,29.98,NNE,15,3.8,8.1,51,0.00,BKN,,0.00,582.1,WeatherDisplay:10.37,2013-02-26 16:15:00,
2013-02-26 11:20:00,46.0,29.4,29.98,NE,38,2.9,5.8,52,0.00,BKN,,0.00,576.7,WeatherDisplay:10.37,2013-02-26 16:20:00,
2013-02-26 11:25:00,47.3,30.5,29.97,NW,319,2.6,5.8,52,0.00,BKN,,0.00,589.8,WeatherDisplay:10.37,2013-02-26 16:25:00,
2013-02-26 11:30:00,47.3,28.6,29.96,ENE,73,4.8,10.4,48,0.00,BKN,,0.00,572.8,WeatherDisplay:10.37,2013-02-26 16:30:00,
2013-02-26 11:35:00,47.8,29.1,29.96,North,8,4.8,11.5,48,0.00,BKN,,0.00,571.3,WeatherDisplay:10.37,2013-02-26 16:35:00,
2013-02-26 11:40:00,47.5,28.7,29.95,NE,46,3.0,9.2,48,0.00,BKN,,0.00,538.9,WeatherDisplay:10.37,2013-02-26 16:40:00,
2013-02-26 11:45:00,47.5,28.2,29.95,SSE,161,4.5,10.4,47,0.00,BKN,,0.00,538.9,WeatherDisplay:10.37,2013-02-26 16:45:00,
2013-02-26 11:50:00,46.9,28.3,29.95,ENE,73,4.8,8.1,48,0.00,BKN,,0.00,571.3,WeatherDisplay:10.37,2013-02-26 16:50:00,
2013-02-26 11:55:00,46.9,27.2,29.95,North,352,6.3,10.4,46,0.00,BKN,,0.00,546.6,WeatherDisplay:10.37,2013-02-26 16:55:00,
2013-02-26 12:00:00,46.4,27.2,29.94,NNE,13,6.6,9.2,47,0.00,BKN,,0.00,507.2,WeatherDisplay:10.37,2013-02-26 17:00:00,
2013-02-26 12:05:00,46.6,27.4,29.93,SE,137,5.3,10.4,47,0.00,OVC,BKN,0.00,525.7,WeatherDisplay:10.37,2013-02-26 17:05:00,
2013-02-26 12:10:00,47.5,29.7,29.93,NE,46,0.9,5.9,50,0.00,OVC,BKN,0.00,508.7,WeatherDisplay:10.37,2013-02-26 17:10:00,
2013-02-26 12:15:00,47.8,28.6,29.92,SSE,159,4.3,6.9,47,0.00,OVC,BKN,0.00,501.0,WeatherDisplay:10.37,2013-02-26 17:15:00,
2013-02-26 12:20:00,47.1,27.4,29.92,NNE,29,5.4,11.5,46,0.00,OVC,BKN,0.00,453.9,WeatherDisplay:10.37,2013-02-26 17:20:00,
2013-02-26 12:25:00,47.1,27.9,29.91,ENE,62,6.4,11.5,47,0.00,OVC,BKN,0.00,469.4,WeatherDisplay:10.37,2013-02-26 17:25:00,
2013-02-26 12:30:00,47.5,28.2,29.91,NE,46,4.3,10.4,47,0.00,OVC,BKN,0.00,456.3,WeatherDisplay:10.37,2013-02-26 17:30:00,
2013-02-26 12:35:00,47.5,28.2,29.91,ENE,62,2.2,6.0,47,0.00,OVC,BKN,0.00,422.3,WeatherDisplay:10.37,2013-02-26 17:35:00,
2013-02-26 12:40:00,47.5,27.7,29.91,NE,34,3.0,5.8,46,0.00,OVC,BKN,0.00,375.2,WeatherDisplay:10.37,2013-02-26 17:40:00,
2013-02-26 12:45:00,47.5,28.2,29.91,NNW,341,4.4,11.5,47,0.00,OVC,BKN,0.00,386.0,WeatherDisplay:10.37,2013-02-26 17:45:00,
2013-02-26 12:50:00,47.3,28.1,29.91,NNE,28,3.0,6.9,47,0.00,OVC,BKN,0.00,375.2,WeatherDisplay:10.37,2013-02-26 17:50:00,
2013-02-26 12:55:00,47.7,28.4,29.90,ENE,72,3.8,6.9,47,0.00,OVC,BKN,0.00,363.6,WeatherDisplay:10.37,2013-02-26 17:55:00,
2013-02-26 13:00:00,47.5,27.7,29.89,NNE,23,5.4,6.9,46,0.00,OVC,BKN,0.00,453.9,WeatherDisplay:10.37,2013-02-26 18:00:00,
2013-02-26 13:05:00,48.0,28.7,29.89,ENE,77,5.0,8.1,47,0.00,OVC,BKN,0.00,422.3,WeatherDisplay:10.37,2013-02-26 18:05:00,
2013-02-26 13:10:00,48.4,29.1,29.88,North,4,2.0,6.9,47,0.00,OVC,BKN,0.00,354.3,WeatherDisplay:10.37,2013-02-26 18:10:00,
2013-02-26 13:15:00,47.8,29.1,29.88,ENE,67,3.7,6.9,48,0.00,OVC,BKN,0.00,342.8,WeatherDisplay:10.37,2013-02-26 18:15:00,
2013-02-26 13:20:00,47.7,28.9,29.88,South,179,2.1,7.9,48,0.00,OVC,BKN,0.00,346.6,WeatherDisplay:10.37,2013-02-26 18:20:00,
2013-02-26 13:25:00,47.3,28.6,29.88,ENE,65,3.0,8.1,48,0.00,OVC,BKN,0.00,335.0,WeatherDisplay:10.37,2013-02-26 18:25:00,
2013-02-26 13:30:00,47.5,28.7,29.87,ENE,69,2.0,4.6,48,0.00,OVC,BKN,0.00,335.0,WeatherDisplay:10.37,2013-02-26 18:30:00,
2013-02-26 13:35:00,47.1,28.4,29.87,SE,145,1.5,5.8,48,0.00,OVC,BKN,0.00,318.8,WeatherDisplay:10.37,2013-02-26 18:35:00,
2013-02-26 13:40:00,47.5,28.2,29.87,NE,51,3.7,8.1,47,0.00,OVC,BKN,0.00,294.1,WeatherDisplay:10.37,2013-02-26 18:40:00,
2013-02-26 13:45:00,47.7,29.4,29.87,ENE,59,2.4,4.6,49,0.00,OVC,BKN,0.00,265.6,WeatherDisplay:10.37,2013-02-26 18:45:00,
2013-02-26 13:50:00,47.1,27.9,29.87,NNE,15,2.0,5.8,47,0.00,OVC,BKN,0.00,233.9,WeatherDisplay:10.37,2013-02-26 18:50:00,
2013-02-26 13:55:00,46.0,27.4,29.87,NNE,33,6.8,11.5,48,0.00,OVC,BKN,0.00,216.9,WeatherDisplay:10.37,2013-02-26 18:55:00,
2013-02-26 14:00:00,46.2,28.6,29.86,SE,131,1.8,5.8,50,0.00,OVC,BKN,0.00,209.2,WeatherDisplay:10.37,2013-02-26 19:00:00,
2013-02-26 14:05:00,46.2,28.6,29.86,SSE,159,3.2,9.2,50,0.00,OVC,BKN,0.00,196.1,WeatherDisplay:10.37,2013-02-26 19:05:00,
2013-02-26 14:10:00,46.0,28.4,29.86,NE,37,2.3,4.6,50,0.00,OVC,BKN,0.00,186.8,WeatherDisplay:10.37,2013-02-26 19:10:00,
2013-02-26 14:15:00,46.2,29.1,29.85,NNE,13,1.4,3.5,51,0.00,OVC,BKN,0.00,175.2,WeatherDisplay:10.37,2013-02-26 19:15:00,
2013-02-26 14:20:00,45.5,28.4,29.85,East,96,3.2,8.1,51,0.00,OVC,BKN,0.00,166.0,WeatherDisplay:10.37,2013-02-26 19:20:00,
2013-02-26 14:25:00,45.3,28.2,29.85,SSE,166,3.8,13.8,51,0.00,OVC,BKN,0.00,154.4,WeatherDisplay:10.37,2013-02-26 19:25:00,
2013-02-26 14:30:00,44.8,27.7,29.85,NNE,25,3.3,9.2,51,0.00,OVC,BKN,0.00,145.1,WeatherDisplay:10.37,2013-02-26 19:30:00,
2013-02-26 14:35:00,45.0,28.8,29.85,SE,129,2.8,9.8,53,0.00,OVC,BKN,0.00,137.4,WeatherDisplay:10.37,2013-02-26 19:35:00,
2013-02-26 14:40:00,45.1,28.5,29.85,NE,56,2.0,8.7,52,0.00,OVC,BKN,0.00,132.0,WeatherDisplay:10.37,2013-02-26 19:40:00,
2013-02-26 14:45:00,45.3,29.2,29.84,ENE,71,3.7,9.8,53,0.00,OVC,BKN,0.00,128.2,WeatherDisplay:10.37,2013-02-26 19:45:00,
2013-02-26 14:50:00,45.1,28.5,29.85,NE,47,1.6,6.9,52,0.00,OVC,BKN,0.00,120.4,WeatherDisplay:10.37,2013-02-26 19:50:00,
2013-02-26 14:55:00,45.1,29.0,29.84,NE,34,3.6,9.2,53,0.00,OVC,BKN,0.00,118.9,WeatherDisplay:10.37,2013-02-26 19:55:00,
2013-02-26 15:00:00,45.1,29.0,29.85,ENE,77,3.6,6.9,53,0.00,OVC,BKN,0.00,115.0,WeatherDisplay:10.37,2013-02-26 20:00:00,
2013-02-26 15:05:00,45.0,28.8,29.84,NE,38,2.3,6.9,53,0.00,OVC,BKN,0.00,107.3,WeatherDisplay:10.37,2013-02-26 20:05:00,
2013-02-26 15:10:00,45.0,28.8,29.84,NE,54,3.4,6.9,53,0.00,OVC,BKN,0.00,101.9,WeatherDisplay:10.37,2013-02-26 20:10:00,
2013-02-26 15:15:00,44.6,28.5,29.84,ESE,109,4.2,6.9,53,0.00,OVC,BKN,0.00,84.9,WeatherDisplay:10.37,2013-02-26 20:15:00,
2013-02-26 15:20:00,44.8,29.1,29.84,ENE,61,3.5,6.9,54,0.00,OVC,BKN,0.00,64.1,WeatherDisplay:10.37,2013-02-26 20:20:00,
2013-02-26 15:25:00,44.8,29.6,29.84,NE,42,1.7,3.9,55,0.00,OVC,BKN,0.00,56.4,WeatherDisplay:10.37,2013-02-26 20:25:00,
2013-02-26 15:30:00,44.6,29.4,29.83,ENE,72,1.8,6.1,55,0.00,OVC,BKN,0.00,52.5,WeatherDisplay:10.37,2013-02-26 20:30:00,
2013-02-26 15:35:00,44.2,29.1,29.83,NNE,29,3.6,6.9,55,0.00,OVC,BKN,0.00,47.1,WeatherDisplay:10.37,2013-02-26 20:35:00,
2013-02-26 15:40:00,44.1,28.9,29.83,ENE,70,1.5,6.9,55,0.00,OVC,BKN,0.00,41.7,WeatherDisplay:10.37,2013-02-26 20:40:00,
2013-02-26 15:45:00,44.2,29.5,29.82,NNE,28,2.0,6.3,56,0.00,OVC,BKN,0.00,37.8,WeatherDisplay:10.37,2013-02-26 20:45:00,
2013-02-26 15:50:00,43.9,29.2,29.81,NNE,17,2.7,6.9,56,0.00,OVC,BKN,0.00,31.7,WeatherDisplay:10.37,2013-02-26 20:50:00,
2013-02-26 15:55:00,43.5,29.3,29.81,ENE,75,4.8,6.9,57,0.00,OVC,BKN,0.00,28.6,WeatherDisplay:10.37,2013-02-26 20:55:00,
2013-02-26 16:00:00,43.3,28.7,29.81,ENE,64,6.6,9.2,56,0.00,OVC,BKN,0.00,30.1,WeatherDisplay:10.37,2013-02-26 21:00:00,
2013-02-26 16:05:00,43.0,28.8,29.81,ENE,77,5.1,10.4,57,0.00,OVC,BKN,0.00,31.7,WeatherDisplay:10.37,2013-02-26 21:05:00,
2013-02-26 16:10:00,43.3,29.1,29.81,ENE,74,2.9,6.9,57,0.00,OVC,BKN,0.00,37.8,WeatherDisplay:10.37,2013-02-26 21:10:00,
2013-02-26 16:15:00,43.2,28.9,29.80,ENE,78,5.1,8.1,57,0.00,OVC,BKN,0.00,35.5,WeatherDisplay:10.37,2013-02-26 21:15:00,
2013-02-26 16:20:00,43.2,28.9,29.80,North,11,3.8,8.1,57,0.00,OVC,BKN,0.00,28.6,WeatherDisplay:10.37,2013-02-26 21:20:00,
2013-02-26 16:25:00,43.0,28.8,29.79,NNE,30,3.3,6.9,57,0.00,OVC,BKN,0.00,24.7,WeatherDisplay:10.37,2013-02-26 21:25:00,
2013-02-26 16:30:00,43.0,29.2,29.79,ENE,77,2.3,5.8,58,0.00,OVC,BKN,0.00,24.7,WeatherDisplay:10.37,2013-02-26 21:30:00,
2013-02-26 16:35:00,42.8,28.6,29.78,NNE,32,6.5,10.4,57,0.00,OVC,BKN,0.00,20.8,WeatherDisplay:10.37,2013-02-26 21:35:00,
2013-02-26 16:40:00,42.6,28.9,29.78,NE,42,5.5,6.9,58,0.00,OVC,BKN,0.00,15.4,WeatherDisplay:10.37,2013-02-26 21:40:00,
2013-02-26 16:45:00,42.4,28.7,29.78,NE,50,6.6,9.2,58,0.00,OVC,BKN,0.00,15.4,WeatherDisplay:10.37,2013-02-26 21:45:00,
2013-02-26 16:50:00,42.4,28.7,29.78,NE,51,4.7,9.2,58,0.00,OVC,BKN,0.00,11.6,WeatherDisplay:10.37,2013-02-26 21:50:00,
2013-02-26 16:55:00,42.4,28.7,29.78,ENE,66,2.6,4.6,58,0.00,OVC,BKN,0.00,9.3,WeatherDisplay:10.37,2013-02-26 21:55:00,
2013-02-26 17:00:00,42.3,28.1,29.78,NE,36,6.2,10.8,57,0.00,OVC,BKN,0.00,9.3,WeatherDisplay:10.37,2013-02-26 22:00:00,
2013-02-26 17:05:00,42.1,28.4,29.78,NE,44,5.1,10.4,58,0.00,OVC,BKN,0.00,7.7,WeatherDisplay:10.37,2013-02-26 22:05:00,
2013-02-26 17:10:00,42.4,28.7,29.78,ENE,62,4.1,11.5,58,0.00,OVC,BKN,0.00,5.4,WeatherDisplay:10.37,2013-02-26 22:10:00,
2013-02-26 17:15:00,42.4,28.7,29.79,NE,46,2.3,6.9,58,0.00,OVC,BKN,0.00,3.9,WeatherDisplay:10.37,2013-02-26 22:15:00,
2013-02-26 17:20:00,42.1,28.4,29.78,NE,47,6.4,12.7,58,0.00,OVC,BKN,0.00,1.5,WeatherDisplay:10.37,2013-02-26 22:20:00,
2013-02-26 17:25:00,41.9,28.2,29.79,North,350,3.2,9.2,58,0.00,OVC,BKN,0.00,1.5,WeatherDisplay:10.37,2013-02-26 22:25:00,
2013-02-26 17:30:00,42.1,28.4,29.79,North,352,3.6,10.4,58,0.00,OVC,BKN,0.00,1.5,WeatherDisplay:10.37,2013-02-26 22:30:00,
2013-02-26 17:35:00,41.7,28.0,29.79,NE,44,4.1,6.9,58,0.00,OVC,BKN,0.00,1.5,WeatherDisplay:10.37,2013-02-26 22:35:00,
2013-02-26 17:40:00,41.9,28.2,29.79,NNE,19,4.1,6.9,58,0.00,OVC,BKN,0.00,1.5,WeatherDisplay:10.37,2013-02-26 22:40:00,
2013-02-26 17:45:00,41.7,28.0,29.78,NE,55,4.9,10.6,58,0.00,OVC,BKN,0.00,1.5,WeatherDisplay:10.37,2013-02-26 22:45:00,
2013-02-26 17:50:00,41.7,28.0,29.78,NNE,26,3.9,10.4,58,0.00,OVC,BKN,0.00,1.5,WeatherDisplay:10.37,2013-02-26 22:50:00,
2013-02-26 17:55:00,41.7,28.8,29.78,ENE,72,5.0,8.1,60,0.00,OVC,BKN,0.00,0.0,WeatherDisplay:10.37,2013-02-26 22:55:00,
2013-02-26 18:00:00,41.5,29.5,29.78,NE,38,3.1,9.2,62,0.00,OVC,BKN,0.00,0.0,WeatherDisplay:10.37,2013-02-26 23:00:00,
2013-02-26 18:05:00,41.2,29.5,29.78,NE,51,2.4,4.6,63,0.00,-RA,BKN,0.00,0.0,WeatherDisplay:10.37,2013-02-26 23:05:00,
2013-02-26 18:10:00,40.8,28.8,29.78,ENE,64,4.9,9.2,62,0.00,-RA,BKN,0.00,0.0,WeatherDisplay:10.37,2013-02-26 23:10:00,
2013-02-26 18:15:00,41.0,29.0,29.78,East,86,4.3,4.6,62,0.00,-RA,BKN,0.00,0.0,WeatherDisplay:10.37,2013-02-26 23:15:00,
2013-02-26 18:20:00,41.0,29.4,29.77,NNE,30,3.0,4.6,63,0.00,-RA,BKN,0.00,0.0,WeatherDisplay:10.37,2013-02-26 23:20:00,
2013-02-26 18:25:00,40.8,29.2,29.77,ENE,73,4.1,8.1,63,0.00,-RA,BKN,0.00,0.0,WeatherDisplay:10.37,2013-02-26 23:25:00,
2013-02-26 18:30:00,40.8,29.2,29.77,NE,40,5.2,11.5,63,0.00,-RA,BKN,0.00,0.0,WeatherDisplay:10.37,2013-02-26 23:30:00,
2013-02-26 18:35:00,40.6,29.8,29.77,NE,41,4.3,9.2,65,0.00,-RA,BKN,0.00,0.0,WeatherDisplay:10.37,2013-02-26 23:35:00,
2013-02-26 18:40:00,40.6,30.9,29.77,NE,52,3.6,5.8,68,0.00,-RA,BKN,0.00,0.0,WeatherDisplay:10.37,2013-02-26 23:40:00,
2013-02-26 18:45:00,40.3,30.9,29.77,ENE,64,4.0,6.9,69,0.01,-RA,BKN,0.01,0.0,WeatherDisplay:10.37,2013-02-26 23:45:00,
2013-02-26 18:50:00,39.9,30.9,29.77,ENE,68,4.7,5.8,70,0.01,-RA,BKN,0.01,0.0,WeatherDisplay:10.37,2013-02-26 23:50:00,
2013-02-26 18:55:00,39.7,31.4,29.77,ENE,60,2.6,6.9,72,0.01,-RA,BKN,0.01,0.0,WeatherDisplay:10.37,2013-02-26 23:55:00,
2013-02-26 19:00:00,39.7,31.8,29.76,ENE,57,2.6,6.9,73,0.01,-RA,BKN,0.01,0.0,WeatherDisplay:10.37,2013-02-27 00:00:00,
2013-02-26 19:05:00,39.0,31.4,29.76,North,355,5.1,9.2,74,0.01,-RA,BKN,0.01,0.0,WeatherDisplay:10.37,2013-02-27 00:05:00,
2013-02-26 19:10:00,39.0,32.1,29.76,NE,48,5.0,6.9,76,0.01,-RA,BKN,0.01,0.0,WeatherDisplay:10.37,2013-02-27 00:10:00,
2013-02-26 19:15:00,38.5,31.9,29.75,NE,51,5.2,8.1,77,0.01,-RA,BKN,0.01,0.0,WeatherDisplay:10.37,2013-02-27 00:15:00,
2013-02-26 19:20:00,38.5,32.5,29.75,NNE,29,4.7,9.2,79,0.02,-RA,BKN,0.02,0.0,WeatherDisplay:10.37,2013-02-27 00:20:00,
2013-02-26 19:25:00,38.1,32.5,29.75,NNE,21,4.3,8.1,80,0.03,-RA,BKN,0.03,0.0,WeatherDisplay:10.37,2013-02-27 00:25:00,
2013-02-26 19:30:00,38.1,32.8,29.74,NE,44,5.9,8.1,81,0.03,-RA,BKN,0.03,0.0,WeatherDisplay:10.37,2013-02-27 00:30:00,
2013-02-26 19:35:00,37.9,32.9,29.74,East,84,5.1,8.1,82,0.03,-RA,BKN,0.03,0.0,WeatherDisplay:10.37,2013-02-27 00:35:00,
2013-02-26 19:40:00,37.6,32.9,29.74,ENE,64,5.7,9.2,83,0.04,-RA,BKN,0.04,0.0,WeatherDisplay:10.37,2013-02-27 00:40:00,
2013-02-26 19:45:00,37.6,33.5,29.74,NE,43,3.9,8.1,85,0.03,-RA,BKN,0.04,0.0,WeatherDisplay:10.37,2013-02-27 00:45:00,
2013-02-26 19:50:00,37.2,33.4,29.74,NE,51,5.1,9.8,86,0.04,-RA,BKN,0.05,0.0,WeatherDisplay:10.37,2013-02-27 00:50:00,
2013-02-26 19:55:00,37.0,33.5,29.73,NNE,29,6.0,9.2,87,0.04,-RA,BKN,0.05,0.0,WeatherDisplay:10.37,2013-02-27 00:55:00,
2013-02-26 20:00:00,37.0,33.8,29.73,NE,41,6.2,9.2,88,0.06,-RA,BKN,0.07,0.0,WeatherDisplay:10.37,2013-02-27 01:00:00,
2013-02-26 20:05:00,36.7,33.5,29.73,ENE,58,5.1,9.2,88,0.07, +RA,BKN,0.08,0.0,WeatherDisplay:10.37,2013-02-27 01:05:00,
2013-02-26 20:10:00,36.7,33.7,29.73,NE,49,5.7,9.2,89,0.08, +RA,BKN,0.09,0.0,WeatherDisplay:10.37,2013-02-27 01:10:00,
2013-02-26 20:15:00,36.7,34.0,29.73,NE,34,4.3,6.9,90,0.09, +RA,BKN,0.11,0.0,WeatherDisplay:10.37,2013-02-27 01:15:00,
2013-02-26 20:20:00,36.7,34.3,29.73,ENE,73,5.1,9.2,91,0.10, +RA,BKN,0.12,0.0,WeatherDisplay:10.37,2013-02-27 01:20:00,
2013-02-26 20:25:00,36.5,34.1,29.73,East,100,6.1,12.7,91,0.10, +RA,BKN,0.13,0.0,WeatherDisplay:10.37,2013-02-27 01:25:00,
2013-02-26 20:30:00,36.5,34.4,29.72,NE,54,4.7,8.1,92,0.11, +RA,BKN,0.14,0.0,WeatherDisplay:10.37,2013-02-27 01:30:00,
2013-02-26 20:35:00,36.3,34.2,29.72,NE,42,5.5,9.3,92,0.12, +RA,BKN,0.15,0.0,WeatherDisplay:10.37,2013-02-27 01:35:00,
2013-02-26 20:40:00,36.5,34.4,29.72,ENE,60,4.1,9.2,92,0.12, +RA,BKN,0.16,0.0,WeatherDisplay:10.37,2013-02-27 01:40:00,
2013-02-26 20:45:00,36.5,34.4,29.72,ENE,69,4.0,6.9,92,0.13, +RA,BKN,0.17,0.0,WeatherDisplay:10.37,2013-02-27 01:45:00,
2013-02-26 20:50:00,36.3,34.2,29.72,East,88,2.6,4.6,92,0.13, +RA,BKN,0.18,0.0,WeatherDisplay:10.37,2013-02-27 01:50:00,
2013-02-26 20:55:00,36.5,34.4,29.72,NE,52,3.9,5.8,92,0.14, +RA,BKN,0.19,0.0,WeatherDisplay:10.37,2013-02-27 01:55:00,
2013-02-26 21:00:00,36.7,34.6,29.72,ENE,62,2.0,10.4,92,0.13, +RA,BKN,0.19,0.0,WeatherDisplay:10.37,2013-02-27 02:00:00,
2013-02-26 21:05:00,36.5,34.7,29.72,ENE,72,4.4,8.1,93,0.13, +RA,BKN,0.20,0.0,WeatherDisplay:10.37,2013-02-27 02:05:00,
2013-02-26 21:11:00,36.7,34.8,29.73,NNE,18,3.1,5.8,93,0.12, +RA,BKN,0.21,0.0,WeatherDisplay:10.37,2013-02-27 02:11:00,
2013-02-26 21:16:00,36.7,34.8,29.74,NW,326,2.5,5.8,93,0.11, +RA,BKN,0.23,0.0,WeatherDisplay:10.37,2013-02-27 02:16:00,
2013-02-26 21:21:00,36.7,34.8,29.74,NE,52,0.6,4.6,93,0.11, +RA,BKN,0.23,0.0,WeatherDisplay:10.37,2013-02-27 02:21:00,
2013-02-26 21:27:00,36.9,35.0,29.74,NE,39,3.2,5.8,93,0.10, +RA,BKN,0.23,0.0,WeatherDisplay:10.37,2013-02-27 02:27:00,
2013-02-26 21:32:00,36.7,34.8,29.74,East,90,1.8,5.8,93,0.09, +RA,BKN,0.23,0.0,WeatherDisplay:10.37,2013-02-27 02:32:00,
2013-02-26 21:37:00,36.7,34.8,29.74,ENE,70,3.2,6.9,93,0.08, +RA,BKN,0.23,0.0,WeatherDisplay:10.37,2013-02-27 02:37:00,
2013-02-26 21:42:00,36.5,34.7,29.74,NE,53,3.5,6.9,93,0.07, +RA,BKN,0.23,0.0,WeatherDisplay:10.37,2013-02-27 02:42:00,
2013-02-26 21:47:00,36.1,34.6,29.73,ESE,109,4.5,9.2,94,0.06,OVC,BKN,0.23,0.0,WeatherDisplay:10.37,2013-02-27 02:47:00,
2013-02-26 21:52:00,35.8,34.8,29.72,ENE,69,4.7,8.1,96,0.05,OVC,BKN,0.23,0.0,WeatherDisplay:10.37,2013-02-27 02:52:00,
2013-02-26 21:57:00,35.6,34.6,29.72,ENE,68,3.7,9.2,96,0.04,OVC,BKN,0.23,0.0,WeatherDisplay:10.37,2013-02-27 02:57:00,
2013-02-26 22:02:00,35.8,34.8,29.72,ENE,73,4.5,6.9,96,0.04, +RA,BKN,0.23,0.0,WeatherDisplay:10.37,2013-02-27 03:02:00,
2013-02-26 22:07:00,35.6,34.8,29.71,ENE,62,5.7,9.2,97,0.03, +RA,BKN,0.23,0.0,WeatherDisplay:10.37,2013-02-27 03:07:00,
2013-02-26 22:12:00,35.4,34.7,29.71,NE,38,5.4,6.9,97,0.03, +RA,BKN,0.24,0.0,WeatherDisplay:10.37,2013-02-27 03:12:00,
2013-02-26 22:17:00,35.8,35.0,29.70,ENE,66,5.3,8.9,97,0.04, +RA,BKN,0.26,0.0,WeatherDisplay:10.37,2013-02-27 03:17:00,
2013-02-26 22:22:00,35.4,34.7,29.69,NE,41,4.2,12.7,97,0.06, +RA,BKN,0.29,0.0,WeatherDisplay:10.37,2013-02-27 03:22:00,
2013-02-26 22:27:00,35.8,35.0,29.70,NE,41,4.2,9.2,97,0.08, +RA,BKN,0.31,0.0,WeatherDisplay:10.37,2013-02-27 03:27:00,
2013-02-26 22:32:00,35.8,35.0,29.69,North,3,4.6,9.2,97,0.09, +RA,BKN,0.33,0.0,WeatherDisplay:10.37,2013-02-27 03:32:00,
2013-02-26 22:37:00,35.6,34.8,29.69,ENE,62,4.2,5.8,97,0.12, +RA,BKN,0.35,0.0,WeatherDisplay:10.37,2013-02-27 03:37:00,
2013-02-26 22:42:00,35.6,35.1,29.69,ENE,72,6.2,11.5,98,0.15, +RA,BKN,0.38,0.0,WeatherDisplay:10.37,2013-02-27 03:42:00,
2013-02-26 22:47:00,35.6,34.8,29.69,ENE,68,5.1,9.2,97,0.16, +RA,BKN,0.39,0.0,WeatherDisplay:10.37,2013-02-27 03:47:00,
2013-02-26 22:52:00,35.8,35.0,29.69,ENE,73,3.6,7.0,97,0.16, +RA,BKN,0.39,0.0,WeatherDisplay:10.37,2013-02-27 03:52:00,
2013-02-26 22:57:00,35.8,35.0,29.69,NE,51,3.7,8.1,97,0.16, +RA,BKN,0.39,0.0,WeatherDisplay:10.37,2013-02-27 03:57:00,
2013-02-26 23:02:00,35.4,34.7,29.68,ENE,62,3.4,8.1,97,0.16, +RA,BKN,0.39,0.0,WeatherDisplay:10.37,2013-02-27 04:02:00,
2013-02-26 23:07:00,35.1,34.6,29.68,ENE,74,5.2,13.8,98,0.16, +RA,BKN,0.39,0.0,WeatherDisplay:10.37,2013-02-27 04:07:00,
2013-02-26 23:12:00,34.9,34.6,29.67,ENE,78,4.7,6.9,99,0.15, +RA,BKN,0.39,0.0,WeatherDisplay:10.37,2013-02-27 04:12:00,
2013-02-26 23:17:00,34.9,34.6,29.67,North,354,4.4,6.3,99,0.13,-RA,BKN,0.39,0.0,WeatherDisplay:10.37,2013-02-27 04:17:00,
2013-02-26 23:22:00,34.9,34.6,29.67,North,7,5.3,8.1,99,0.10,-RA,BKN,0.39,0.0,WeatherDisplay:10.37,2013-02-27 04:22:00,
2013-02-26 23:27:00,34.9,34.6,29.66,ENE,58,5.5,8.1,99,0.08,-RA,BKN,0.39,0.0,WeatherDisplay:10.37,2013-02-27 04:27:00,
2013-02-26 23:32:00,34.9,34.9,29.65,NE,54,5.2,10.4,100,0.07,-RA,BKN,0.39,0.0,WeatherDisplay:10.37,2013-02-27 04:32:00,
2013-02-26 23:37:00,34.9,34.9,29.65,East,79,6.3,9.2,100,0.04,-RA,BKN,0.39,0.0,WeatherDisplay:10.37,2013-02-27 04:37:00,
2013-02-26 23:42:00,34.9,34.9,29.65,ESE,103,8.4,13.8,100,0.01,-RA,BKN,0.40,0.0,WeatherDisplay:10.37,2013-02-27 04:42:00,
2013-02-26 23:47:00,34.9,34.9,29.63,NE,38,6.5,12.7,100,0.01,-RA,BKN,0.40,0.0,WeatherDisplay:10.37,2013-02-27 04:47:00,
2013-02-26 23:52:00,34.7,34.7,29.63,ENE,68,7.7,15.0,100,0.02,-RA,BKN,0.41,0.0,WeatherDisplay:10.37,2013-02-27 04:52:00,
2013-02-26 23:57:00,34.5,34.5,29.62,NNE,33,8.3,12.7,100,0.02,-RA,BKN,0.41,0.0,WeatherDisplay:10.37,2013-02-27 04:57:00,